Simultaneous Nadir Overpasses (SNOs) Predictions

Prediction of SNOs between METOP-A and NOAA-19 Satellite Orbit:

Table of predicted SNOs for the next 14.0 days since TLE Epoch: 7/13/2018
Index Date (METOP-A) Time (METOP-A) Lat,Lon (METOP-A) SZA (METOP-A ) Date (NOAA-19) Time (NOAA-19) Lat,Lon (NOAA-19) SZA (NOAA-19 ) Distance(km) Time Diff (sec)
1 07/24/2018 10:59:17 -78.95,-154.25 120.78 07/24/2018 10:58:10 -78.94,-157.41 120.89 67.46 67
2 07/24/2018 11:50:04 78.69, 11.41 58.92 07/24/2018 11:49:08 78.72, 11.43 58.94 3.53 56
3 07/24/2018 12:40:45 -78.71, 178.86 121.06 07/24/2018 12:40:04 -78.70, 178.87 121.08 1.27 41
4 07/24/2018 13:31:25 78.71, -13.82 58.95 07/24/2018 13:31:08 78.68, -13.80 58.92 2.72 17
5 07/24/2018 14:22:07 -78.69, 153.39 121.07 07/24/2018 14:22:05 -78.69, 153.39 121.06 0.69 2
6 07/24/2018 15:12:47 78.68, -39.29 58.94 07/24/2018 15:13:09 78.68, -39.27 58.94 0.89 22
7 07/24/2018 16:03:29 -78.66, 127.92 121.08 07/24/2018 16:04:06 -78.69, 127.92 121.05 2.62 37
8 07/24/2018 16:54:09 78.66, -64.76 58.93 07/24/2018 16:55:10 78.67, -64.74 58.95 1.19 61




NCC Satellite Simultaneous Nadir Overpasses (SNOs) Prediction Service
